Home   Weather   Ceduna   Past weeks
Flag for Australia

Past Weather in Ceduna, South Australia, Australia — Yesterday and Last 2 Weeks

Now
65 °F

Mild.


Feels Like: 65 °F
Forecast: 90 / 66 °F
Wind: 10 mph from Northeast

Location: Ceduna Airport

Current Time: Oct 23, 2019 at 4:13:03 am

Latest Report: Oct 23, 2019 at 3:30 am


Visibility: N/A

Pressure: 29.98 "Hg

Humidity: 19%

Dew Point: 22 °F

Location of CedunaLocation

Past Weather in Ceduna — Graph

°F

Ceduna Temperature Yesterday

Maximum temperature yesterday: 93 °F (at 4:30 pm)
Minimum temperature yesterday: 55 °F (at 6:30 am)
Average temperature yesterday: 73 °F

High & Low Weather Summary for the Past Weeks

 TemperatureHumidityPressure
High93 °F (Oct 11, 5:30 pm)96% (Oct 10, 6:00 am)30.40 "Hg (Oct 10, 6:00 am)
Low36 °F (Oct 10, 6:30 am)8% (Oct 22, 3:00 pm)29.68 "Hg (Oct 12, 2:30 pm)
Average62 °F56%30.10 "Hg
* Reported Oct 8 2:30 am — Oct 23 2:30 am, Ceduna. Weather by CustomWeather, © 2019

Note: Actual official high and low records may vary slightly from our data, if they occured in-between our weather recording intervals... More about our weather records

Advertising

Ceduna Weather History for the Previous 24 Hours

Scroll right to see more
 ConditionsComfort  
Time TempWeatherWind HumidityBarometerVisibility
2:30 am
Wed, Oct 23
66 °FMild.10 mph18%30.00 "HgN/A
1:30 am61 °FRefreshingly cool.12 mph25%30.01 "HgN/A
12:30 am65 °FMild.13 mph24%30.01 "HgN/A
12:00 am64 °FMild.12 mph25%30.03 "HgN/A
11:30 pm
Tue, Oct 22
67 °FMild.10 mph23%30.03 "HgN/A
10:30 pm69 °FMild.12 mph23%30.04 "HgN/A
9:30 pm72 °FMild.15 mph26%30.04 "HgN/A
9:00 pm73 °FMild.14 mph27%30.03 "HgN/A
7:30 pm78 °FPleasantly warm.14 mph22%30.01 "HgN/A
6:30 pm83 °FPleasantly warm.14 mph24%30.00 "HgN/A
6:00 pm86 °FPleasantly warm.15 mph13%30.00 "HgN/A
5:30 pm86 °FPleasantly warm.16 mph16%30.00 "HgN/A
4:30 pm93 °FHot.8 mph8%30.00 "HgN/A
3:30 pm90 °FHot.7 mph8%30.02 "HgN/A
3:00 pm92 °FHot.9 mph8%30.03 "HgN/A
2:30 pm90 °FHot.12 mph9%30.05 "HgN/A
1:30 pm89 °FHot.10 mph9%30.08 "HgN/A
12:30 pm88 °FPleasantly warm.14 mph10%30.11 "HgN/A
12:00 pm86 °FPleasantly warm.15 mph10%30.12 "HgN/A
10:30 am83 °FPleasantly warm.20 mph12%30.14 "HgN/A
9:30 am80 °FPleasantly warm.15 mph14%30.15 "HgN/A
9:00 am76 °FMild.13 mph15%30.15 "HgN/A
8:30 am72 °FMild.12 mph18%30.15 "HgN/A
7:30 am61 °FRefreshingly cool.10 mph26%30.14 "HgN/A
6:30 am55 °FCool.13 mph31%30.12 "HgN/A
6:00 am55 °FRefreshingly cool.12 mph30%30.11 "HgN/A
5:30 am57 °FRefreshingly cool.10 mph29%30.11 "HgN/A
4:30 am62 °FRefreshingly cool.12 mph24%30.11 "HgN/A
Weather by CustomWeather, © 2019

See weather overview